Retour au catalogue

STARLINK-3362

ActifCommunicationsVLEO
NORAD 51108·PAYLOAD·🇺🇸 United States

Lancé Jan 19, 2022 depuis Cape Canaveral Space Force Station

Loading…

Prochains Passages (prochaines 24 heures)

TLE

FraisSource: CelesTrak SupGP

Époque: Sep 14, 2026, 14:28 UTC

1 51108C 22005E   26257.60326389  .00052826  00000+0  15119-2 0  2571
2 51108  53.1573 153.2727 0001228  97.1416 212.1820 15.35362545    15

Suivez STARLINK-3362 en temps réel avec AllMySat

Download on the App Store